GFSNW_850_thetae_036.txt.gz
Theta_e
299 299 299 297 294 295 304 305 313 308 308 312 311 312 310 309 311 310 309 309 310 312 311 313 313 311 311 309 310 312 309 313 314 313 308 308 310 312 310 314 313 310 312 312
299 298 299 301 293 294 304 304 305 308 308 313 313 310 311 310 311 311 310 309 309 309 311 312 310 311 308 308 310 311 310 312 313 312 310 309 311 311 309 307 309 313 313 312
299 299 299 300 293 293 304 304 311 308 308 306 311 312 312 312 310 310 308 308 309 309 309 309 310 310 310 308 309 308 309 309 312 312 313 312 312 311 309 310 313 312 311 311
299 299 299 298 293 295 303 303 303 303 310 309 308 308 310 312 312 311 308 309 309 309 310 310 310 310 309 308 310 309 310 313 309 309 309 310 311 311 310 310 311 313 311 310
299 299 298 297 293 294 302 303 303 303 305 304 306 307 311 312 312 312 310 309 309 310 311 310 311 310 311 311 310 310 308 312 309 310 308 309 310 310 310 310 310 310 311 311
299 299 298 298 295 292 297 300 301 302 303 305 307 308 309 310 309 310 310 309 311 312 311 311 310 309 310 310 310 310 311 310 311 313 309 310 312 311 311 311 310 310 311 311
298 298 299 298 297 294 292 295 299 302 305 304 306 305 305 307 308 311 311 310 311 310 308 308 308 308 309 309 309 309 310 311 311 312 310 315 311 309 310 311 310 310 310 310
298 298 298 299 298 297 294 294 293 299 300 301 301 303 304 305 307 310 311 311 311 309 310 312 312 312 311 310 309 309 309 311 313 313 312 312 311 309 310 312 316 310 310 310
298 298 298 298 298 298 296 295 294 292 297 299 300 302 302 305 308 310 310 311 311 310 312 313 312 314 311 312 312 310 310 311 312 311 311 314 313 314 310 312 319 313 310 311
298 298 298 297 299 299 297 296 294 295 294 293 297 300 302 304 306 308 306 309 311 310 313 313 311 312 310 313 312 312 312 312 313 313 311 311 311 313 312 319 318 312 312 312
298 299 298 298 298 298 297 297 296 294 295 294 294 294 297 297 297 305 303 309 309 309 313 313 312 311 311 311 311 311 312 312 313 312 312 311 309 311 315 315 311 311 312 310
298 298 298 298 298 298 298 297 295 294 295 295 295 295 295 295 295 294 295 300 303 309 312 311 312 312 310 312 313 309 312 311 311 311 311 309 310 312 312 311 310 311 311 310
298 298 298 298 298 298 298 298 296 295 295 295 295 295 295 294 295 295 295 296 301 303 301 307 310 313 311 313 313 312 310 309 312 311 312 310 309 310 310 311 310 310 310 310
298 298 298 298 297 298 298 297 296 294 295 294 295 294 294 293 293 293 294 295 296 296 296 304 310 311 308 312 310 311 311 310 311 312 311 311 310 310 310 310 310 310 310 310
298 298 298 297 298 297 296 294 294 294 295 295 294 294 294 294 293 294 293 293 294 294 295 300 309 308 309 307 308 310 309 312 313 314 312 312 311 310 310 310 310 309 310 310
298 298 298 298 297 293 294 294 293 293 293 294 294 293 293 293 296 293 293 294 294 294 295 297 301 307 310 312 312 310 308 308 309 310 309 310 310 309 308 309 309 309 308 309
298 297 297 297 292 295 295 294 293 294 294 293 293 294 293 296 294 292 293 294 295 295 296 297 301 309 308 310 311 309 308 307 307 310 310 308 308 309 308 307 306 306 306 309
297 297 297 292 295 295 294 294 294 294 294 293 293 294 295 295 296 295 293 294 294 295 298 301 303 307 308 311 309 307 306 306 307 307 307 306 305 304 303 303 304 304 304 307
296 296 293 295 295 294 294 294 295 295 295 294 294 296 300 297 299 299 296 296 297 297 303 306 307 310 312 310 307 306 305 305 305 305 304 304 303 303 304 303 303 303 304 305
296 295 294 295 294 294 294 296 295 295 294 294 294 295 298 298 300 302 300 300 302 305 306 306 308 310 305 305 306 305 304 304 303 302 302 302 303 303 303 303 303 303 303 304
296 296 292 293 293 293 295 296 296 296 296 295 295 295 298 300 302 305 302 304 304 310 308 311 309 310 303 299 300 301 301 302 302 301 302 302 301 302 303 303 302 302 304 304
295 294 294 294 294 296 297 298 299 299 301 300 299 300 299 300 305 306 306 307 307 310 308 309 310 304 296 297 298 299 299 300 301 302 302 301 301 301 301 302 302 302 303 304
293 293 294 294 295 299 299 300 301 301 298 298 297 298 300 302 304 305 305 307 309 304 309 310 307 297 296 296 297 298 298 299 300 300 302 302 303 303 303 303 303 304 305 305
292 291 291 295 297 299 299 299 298 297 296 296 296 297 300 302 302 305 307 306 305 309 309 308 302 296 296 296 297 297 297 297 299 299 300 301 302 301 301 301 302 303 304 305
292 291 293 294 295 294 295 295 295 296 296 296 296 297 299 302 303 305 305 307 308 308 307 304 298 297 297 297 297 297 296 297 297 298 298 298 299 300 300 300 300 301 302 303
291 291 291 292 292 294 294 293 295 296 295 295 296 300 303 306 304 307 308 307 306 307 302 300 299 298 297 295 294 294 294 293 293 293 294 294 295 295 297 297 298 298 300 301
290 290 291 291 291 291 293 294 295 295 295 297 297 301 304 301 305 305 304 306 305 300 300 299 299 298 296 295 293 292 291 290 290 291 291 291 292 293 294 295 296 297 297 297

GFSNW_850_thetae_042.txt.gz
Theta_e
299 298 298 299 298 295 295 309 312 310 309 314 315 315 313 312 312 311 311 311 313 313 313 314 314 314 314 312 312 313 312 313 315 315 311 313 314 315 315 315 315 310 311 311
298 299 299 299 295 293 298 306 308 310 309 316 313 312 312 313 312 312 312 311 311 312 313 313 313 313 311 311 312 312 312 312 312 313 312 311 313 313 315 314 313 316 316 310
299 299 299 299 293 296 302 307 310 311 312 311 313 313 313 313 312 312 311 311 311 311 312 311 313 313 311 310 311 309 310 312 312 311 313 313 312 313 312 311 312 314 312 310
299 298 299 299 293 300 304 306 306 305 311 311 309 312 313 313 314 312 311 311 311 311 312 311 312 312 311 310 310 311 312 311 308 311 312 312 313 313 313 310 312 311 314 312
298 298 299 299 296 298 299 302 302 302 306 308 310 310 313 314 314 313 313 311 312 311 312 312 311 312 311 311 310 311 311 311 310 309 311 311 311 311 311 312 312 311 311 311
299 298 298 299 299 297 296 294 299 302 304 307 310 310 310 312 312 312 312 312 311 311 313 313 312 311 311 311 310 311 311 309 308 311 311 311 310 310 310 311 310 311 311 310
299 299 299 298 299 299 297 295 298 300 303 303 305 306 307 309 310 311 312 310 313 310 310 311 311 311 311 311 310 310 311 311 309 308 310 310 312 311 311 310 311 310 310 310
299 299 299 299 299 298 298 297 296 297 299 297 302 301 303 304 309 310 312 313 312 310 312 311 312 312 312 311 311 310 310 310 311 312 309 311 311 311 311 312 312 310 309 309
299 299 298 298 298 298 298 298 296 297 298 298 296 297 301 304 306 309 312 312 312 312 313 313 313 314 312 313 312 310 310 310 311 313 311 313 316 311 311 312 318 313 310 309
299 298 299 299 298 298 298 298 297 297 298 298 297 298 298 299 302 304 308 305 311 312 313 314 312 312 311 312 311 312 311 310 311 313 312 310 312 311 313 318 317 313 312 312
299 299 298 299 298 298 297 298 298 297 297 297 297 297 296 296 297 299 299 305 309 311 312 313 312 310 309 310 310 310 311 310 312 312 313 310 314 314 316 314 314 313 313 313
299 298 298 298 298 298 298 299 298 296 296 297 296 295 296 295 295 295 296 298 299 302 308 310 311 311 308 309 310 308 310 309 310 309 310 310 312 313 313 313 313 314 312 311
299 298 298 298 298 298 297 298 298 297 297 296 296 296 296 295 295 295 296 297 298 300 298 298 307 312 310 310 309 310 310 310 309 310 310 309 310 312 312 312 312 312 312 311
298 298 298 298 298 298 298 298 296 296 295 295 296 296 296 295 296 295 295 296 297 297 296 298 302 310 310 310 310 310 310 309 309 309 309 312 311 311 312 311 311 311 311 311
297 297 298 298 298 298 297 295 294 295 295 296 295 296 294 295 295 294 295 295 295 295 296 298 299 302 304 309 309 310 310 309 309 309 310 311 312 311 312 311 311 310 310 309
297 297 298 298 297 296 294 295 293 294 293 294 296 295 295 294 295 295 295 294 295 295 296 296 297 298 300 303 310 310 311 311 312 311 312 312 312 312 311 310 310 309 309 309
297 297 297 296 295 295 296 296 295 294 294 294 295 296 296 295 295 295 295 295 295 295 295 295 295 296 300 304 304 306 310 311 311 311 311 311 310 310 309 308 308 308 306 306
297 297 296 295 295 295 296 294 294 294 294 293 295 296 297 296 297 296 295 294 294 295 295 296 296 296 297 300 303 307 309 310 310 310 309 308 309 307 306 306 305 305 306 306
297 296 295 296 295 295 295 293 293 294 295 295 296 297 301 298 297 298 295 295 295 294 296 296 297 298 299 300 299 303 306 309 308 307 306 306 306 305 304 304 304 304 304 305
296 296 295 296 294 294 293 296 296 295 295 294 295 296 298 299 299 299 298 296 299 297 298 298 298 303 300 302 305 303 304 307 307 306 303 303 303 303 303 304 304 304 304 304
295 295 295 295 294 296 296 297 297 297 298 296 296 297 298 298 300 302 299 302 300 302 304 302 307 308 304 302 303 304 304 304 304 304 304 305 305 304 304 303 304 304 303 302
295 293 294 296 296 297 298 300 300 300 302 300 299 298 297 298 299 299 302 303 302 307 303 306 310 304 300 299 300 304 301 301 302 304 305 305 305 304 303 303 303 303 303 303
294 292 294 297 297 294 297 298 299 299 300 299 298 298 296 297 300 300 302 306 308 304 307 309 305 300 298 298 298 298 299 299 300 302 303 303 303 303 301 301 301 302 302 303
295 293 290 295 296 297 297 298 298 299 297 297 296 297 297 299 301 302 306 307 305 308 309 309 301 300 298 297 297 297 297 298 299 300 300 300 300 299 299 298 298 298 299 300
295 294 293 293 299 297 296 295 295 295 295 296 296 296 297 299 301 304 304 307 307 308 308 303 300 298 297 297 296 296 296 297 297 297 298 297 295 294 294 294 295 295 296 297
294 294 293 295 294 297 297 296 295 296 295 295 297 297 300 301 302 304 307 308 308 305 301 300 299 298 297 296 296 296 295 294 294 293 292 292 292 292 291 291 291 292 294 295
293 294 294 294 294 294 295 295 295 294 294 296 295 297 300 297 302 305 304 305 302 301 301 299 298 297 297 295 294 294 291 290 291 294 295 296 290 289 289 288 289 289 290 291

GFSNW_850_thetae_045.txt.gz
Theta_e
300 299 299 299 294 295 297 308 306 310 307 309 311 305 311 311 311 311 311 310 311 311 312 313 312 313 313 312 311 313 312 312 315 314 313 313 314 314 313 311 313 307 307 309
299 299 299 298 294 299 302 305 307 309 309 314 309 310 312 312 312 311 311 310 310 310 311 312 311 310 310 311 310 311 311 309 313 314 311 311 314 313 315 312 310 310 311 308
299 299 299 298 295 300 305 306 303 308 311 310 311 311 311 312 311 312 310 310 310 310 311 310 311 311 310 310 310 309 310 310 307 309 308 310 310 313 314 313 310 313 311 309
299 299 299 299 296 298 302 303 304 303 306 306 306 308 313 312 313 311 311 310 310 310 311 310 311 310 310 310 309 310 309 306 305 309 312 311 311 311 312 312 311 313 313 307
299 299 299 299 298 296 294 300 299 301 302 305 306 308 311 313 313 312 313 310 310 309 312 310 310 310 309 309 309 309 308 306 305 303 309 310 310 310 310 311 311 310 310 310
299 299 298 299 299 298 297 296 298 301 303 302 306 308 308 310 311 312 311 310 310 310 312 311 311 309 309 308 308 308 309 303 301 305 310 309 307 308 309 310 310 311 311 311
299 298 299 298 298 298 298 297 297 297 298 298 300 301 301 303 306 309 309 312 312 310 310 310 310 310 309 309 307 308 309 307 303 304 306 307 307 309 308 309 309 309 309 308
298 298 299 299 298 298 298 297 297 297 295 297 298 296 297 302 305 308 310 312 312 310 311 310 310 309 310 310 309 309 309 310 307 306 309 307 310 310 310 309 310 308 309 308
299 299 299 299 298 298 298 297 297 297 296 296 296 297 298 299 301 306 309 310 311 311 310 311 313 313 311 311 311 309 309 309 307 311 309 311 314 310 310 311 314 311 309 308
299 299 299 299 298 298 297 298 297 297 297 298 297 297 297 297 297 300 305 301 307 311 309 311 311 310 310 311 310 310 311 310 309 311 311 308 307 311 312 316 315 312 310 309
299 299 298 298 298 298 297 298 298 297 297 296 297 297 296 296 296 297 298 304 305 307 311 310 309 308 307 308 307 308 309 308 307 309 311 308 311 312 314 313 313 312 312 312
299 298 298 298 298 298 298 297 298 297 297 296 295 296 296 296 296 296 295 298 299 301 306 308 308 309 305 306 308 306 309 307 308 307 307 306 313 312 313 313 313 312 312 313
300 298 298 297 297 298 298 298 297 295 295 295 295 295 295 295 295 296 295 297 299 298 296 298 304 311 308 308 306 307 307 307 307 308 308 308 310 312 313 312 313 313 312 312
299 297 297 298 298 298 297 296 295 296 295 294 295 296 295 295 296 296 295 296 297 296 296 297 299 304 305 308 307 306 307 307 307 307 307 310 311 311 312 312 312 312 311 311
297 297 298 298 298 297 295 295 294 295 295 295 295 296 295 294 295 294 295 295 295 295 296 295 298 300 302 302 304 306 308 308 308 308 308 309 309 311 311 311 311 311 310 310
297 298 298 297 296 295 295 296 294 294 294 294 294 295 295 295 295 295 294 295 295 295 295 295 296 297 299 298 302 306 307 309 309 309 312 311 310 311 311 311 311 310 309 309
297 297 296 296 295 295 295 295 295 294 294 294 293 294 296 296 295 295 294 295 295 295 295 295 294 295 299 300 299 300 302 304 306 310 311 310 310 310 310 310 310 308 308 307
297 296 295 295 295 295 295 293 293 294 294 293 289 292 296 297 297 296 294 294 294 294 295 295 294 294 294 295 295 297 299 305 307 310 311 311 310 309 308 307 307 306 306 306
296 295 295 295 295 295 293 294 295 295 295 295 295 295 296 299 298 298 295 294 294 294 294 294 295 295 297 296 296 296 297 301 302 304 308 307 307 306 305 305 305 305 305 305
296 295 296 296 294 295 295 296 296 295 295 295 294 296 297 298 298 299 297 295 294 292 295 296 297 296 297 298 298 302 300 299 301 303 304 304 304 303 303 304 304 304 304 304
296 295 295 295 296 296 296 296 296 297 296 296 296 297 297 297 298 299 299 298 298 294 299 298 302 307 301 302 301 303 302 302 301 302 303 304 304 303 303 303 303 304 304 304
294 293 295 296 296 297 291 288 297 296 298 299 298 298 297 297 298 298 299 302 302 301 299 303 308 304 300 299 299 299 299 302 301 302 304 304 304 303 303 303 303 303 303 303
295 293 295 297 296 290 288 290 290 290 299 299 297 295 297 296 298 299 301 304 306 303 306 308 305 300 298 297 298 298 299 300 300 300 301 301 302 301 301 300 300 299 300 301
296 293 288 288 287 287 289 289 288 298 298 296 295 296 297 297 299 302 304 306 304 305 308 307 301 299 297 297 297 296 296 298 298 299 299 299 300 298 297 296 295 295 296 296
295 294 289 286 297 298 297 296 295 295 294 295 294 296 296 296 299 301 303 306 306 305 303 303 299 297 297 296 296 296 296 296 297 296 298 296 294 293 293 292 292 292 293 294
295 294 291 294 293 294 296 296 295 295 294 295 296 295 298 299 300 301 304 306 302 302 301 299 298 297 297 297 296 295 294 293 293 293 293 292 290 290 289 289 288 289 290 291
294 294 294 295 295 294 295 295 294 294 293 288 294 295 294 293 297 300 301 300 300 301 300 299 298 298 297 296 294 293 290 290 293 296 294 293 294 291 288 289 288 289 289 289

GFSNW_850_thetae_048.txt.gz
Theta_e
299 299 299 297 295 297 302 307 308 309 306 308 309 303 309 311 311 310 310 309 310 311 311 311 311 313 312 313 313 313 311 310 312 314 313 313 314 314 313 315 311 307 307 308
299 299 299 297 295 298 304 307 306 307 308 313 306 308 311 311 311 311 311 310 310 309 310 311 310 310 309 311 310 312 310 309 311 311 310 312 315 314 314 311 308 307 309 309
299 299 299 299 296 295 304 306 300 306 308 308 308 309 310 311 311 311 309 309 309 309 310 309 311 310 309 310 309 309 310 308 307 310 309 309 312 315 314 313 310 314 309 310
299 299 299 299 299 297 302 302 302 300 306 306 305 307 311 312 313 311 310 310 309 309 310 310 310 310 309 309 309 309 307 306 304 307 310 309 309 311 314 314 314 314 314 310
299 298 299 299 300 299 298 298 298 300 300 302 305 307 309 311 313 311 312 310 310 309 311 309 309 309 308 309 308 309 306 304 303 302 307 310 310 309 311 314 314 312 310 309
298 298 299 298 299 299 298 297 298 301 300 297 304 303 303 306 308 311 310 309 309 310 311 310 310 309 309 307 307 307 308 302 299 302 308 308 307 308 308 310 311 312 311 311
298 299 299 298 298 298 298 297 297 296 296 295 298 297 299 301 303 307 307 311 311 310 311 310 309 309 307 307 307 307 306 304 300 302 305 306 307 308 307 308 309 309 309 308
298 299 299 299 298 298 298 298 297 297 295 295 296 296 298 300 303 305 308 310 310 311 311 307 308 308 309 309 307 306 306 307 305 304 304 307 309 309 308 307 308 307 308 308
299 299 299 298 298 298 297 297 297 297 296 296 297 297 297 297 299 303 308 309 311 311 309 310 310 308 308 310 310 307 307 308 306 309 309 310 309 311 309 308 312 311 307 307
299 298 298 298 297 298 297 297 297 296 297 297 297 296 296 296 295 297 300 298 305 310 307 310 310 306 307 310 310 310 310 309 311 308 309 307 305 306 311 313 311 311 309 307
299 298 298 298 298 298 298 297 296 296 296 296 297 296 296 296 295 296 296 302 303 306 309 310 308 307 306 306 306 307 308 308 308 308 309 307 308 311 312 311 312 312 309 308
300 299 298 297 298 298 298 297 297 295 295 296 295 296 295 295 296 295 295 296 299 300 306 307 308 309 305 305 307 304 309 306 306 306 307 305 308 311 312 313 313 312 312 311
300 298 297 297 298 298 297 297 296 295 296 295 295 295 296 295 295 295 295 297 298 297 296 298 303 309 308 308 305 305 305 305 306 306 306 305 309 311 312 313 313 312 312 312
298 297 297 298 298 297 296 295 295 296 295 294 295 295 295 295 295 296 295 296 297 297 296 296 298 302 304 307 306 306 306 306 306 305 305 308 310 310 310 312 312 313 312 312
298 297 297 298 297 296 294 294 295 294 294 294 295 296 295 294 295 294 295 296 296 296 295 295 296 298 299 299 300 302 306 306 307 308 307 308 309 310 310 311 311 311 311 311
298 297 297 296 296 294 295 295 295 294 294 294 292 295 296 296 295 295 294 295 295 295 295 295 295 296 298 294 298 300 303 304 305 305 305 309 308 310 310 310 311 310 310 309
297 297 296 296 295 295 295 295 294 294 294 294 292 293 296 296 296 295 295 294 294 295 295 294 294 294 297 296 298 298 300 300 298 301 304 308 309 310 310 310 310 310 309 308
297 297 296 295 295 295 294 294 294 294 294 294 288 292 296 298 297 297 294 294 294 295 294 294 294 294 294 294 294 295 295 295 296 298 301 304 310 309 309 309 309 308 307 306
297 297 295 295 294 294 294 295 295 295 295 295 294 293 295 298 298 297 295 294 294 294 293 294 294 294 295 296 296 295 296 298 298 299 300 303 310 307 306 306 306 306 305 305
297 297 296 295 295 296 296 295 296 296 296 296 294 295 292 298 298 298 296 295 294 289 294 295 295 295 295 296 299 298 299 299 298 298 299 302 303 304 305 304 304 304 304 304
296 295 296 296 297 296 296 295 296 297 297 296 296 296 296 296 298 298 299 295 296 293 294 296 295 302 302 299 299 299 301 301 300 300 299 301 302 303 303 303 303 303 304 304
296 296 297 297 297 296 289 287 295 293 293 297 297 297 296 297 297 298 299 301 301 300 297 299 304 303 299 297 297 298 298 299 300 300 301 302 303 303 303 303 303 303 303 303
296 295 296 296 294 288 286 287 288 288 297 298 297 293 295 296 297 298 301 302 304 300 303 307 302 300 297 296 297 297 297 298 299 300 300 299 300 300 300 300 300 300 299 299
297 294 287 287 285 284 286 286 286 297 298 295 294 293 295 297 296 300 302 302 304 305 301 301 301 299 296 296 296 296 296 296 297 297 298 298 296 296 295 294 294 294 294 295
296 295 289 285 294 297 297 297 295 294 294 294 293 294 295 295 295 298 301 305 303 302 300 298 299 297 298 296 296 295 295 295 295 295 295 296 293 292 292 291 290 291 292 292
295 294 290 292 293 293 295 296 295 294 294 293 294 294 295 296 297 297 300 301 299 299 299 299 299 298 296 298 296 295 293 291 292 292 294 292 290 289 288 288 289 289 289 289
295 293 294 295 295 294 294 294 294 294 294 287 291 286 290 292 295 295 296 296 296 300 298 295 294 292 292 293 298 296 292 290 291 294 294 294 295 294 289 287 288 288 288 288